UAE214 KMIA-OMDB

Flight info

Callsign UAE214
Flight time N/A
Altitude 29000
Route FOLZZ3 SUMRS/M082F290 M204 FLUPS DCT JNFOX DCT KINER DCT DRYED M201 NOVOK/M082F310 M201 CARAC/N0479F310 DCT NEEKO/M082F320 NATZ GISTI/N0483F330 DCT DUB DCT LIFFY UL975 WAL M16 DOLAS L603 LAMSO DCT AMSAN DCT TOLTA DCT NOMKA DCT OMELO/N0475F350 DCT GOLOP DCT ODNEM DCT BERVA DCT BALAP DCT BUDOP DCT RONBU DCT ARTAT UP975 EZS UL614 OTKEP UM688 RATVO DCT SISIN/N0481F370 UM688 SIDAD P975 SESRU M677 OBNET/N0476F350 M677 VUTEB
Aircraft B77W/H-SDE1E2E3FGHIJ2J3J4J5M1RWXY/LB1D1

Departure

Time 2026-04-30 21:21
Airport Miami International Airport (KMIA)

Arrival

Time N/A
Airport Dubai International Airport (OMDB)
Time Latitude Longitude Altitude Speed Heading
2026-04-30 21:07 25.79360 -80.28405 24 ft 4 kts 327°
2026-04-30 21:08 25.79340 -80.28388 25 ft 4 kts 305°
2026-04-30 21:08 25.79331 -80.28362 24 ft 4 kts 269°
2026-04-30 21:08 25.79334 -80.28333 24 ft 2 kts 263°
2026-04-30 21:08 25.79334 -80.28331 24 ft 0 kts 264°
2026-04-30 21:14 25.79334 -80.28334 20 ft 1 kts 264°
2026-04-30 21:14 25.79331 -80.28368 20 ft 9 kts 264°
2026-04-30 21:14 25.79323 -80.28450 20 ft 11 kts 264°
2026-04-30 21:14 25.79317 -80.28532 20 ft 11 kts 267°
2026-04-30 21:15 25.79320 -80.28614 20 ft 11 kts 275°
2026-04-30 21:15 25.79311 -80.28694 19 ft 11 kts 255°
2026-04-30 21:15 25.79311 -80.28774 19 ft 11 kts 294°
2026-04-30 21:15 25.79347 -80.28846 19 ft 11 kts 300°
2026-04-30 21:16 25.79384 -80.28918 19 ft 11 kts 298°
2026-04-30 21:16 25.79421 -80.28990 19 ft 11 kts 299°
2026-04-30 21:16 25.79460 -80.29068 19 ft 15 kts 299°
2026-04-30 21:16 25.79514 -80.29176 20 ft 16 kts 299°
2026-04-30 21:17 25.79570 -80.29283 20 ft 16 kts 301°
2026-04-30 21:17 25.79625 -80.29392 20 ft 16 kts 299°
2026-04-30 21:17 25.79680 -80.29500 19 ft 16 kts 299°
2026-04-30 21:17 25.79734 -80.29608 19 ft 16 kts 300°
2026-04-30 21:18 25.79792 -80.29715 19 ft 16 kts 301°
2026-04-30 21:18 25.79847 -80.29822 19 ft 16 kts 299°
2026-04-30 21:18 25.79899 -80.29928 19 ft 9 kts 298°
2026-04-30 21:18 25.79914 -80.29957 19 ft 0 kts 299°
2026-04-30 21:19 25.79927 -80.29983 18 ft 8 kts 299°
2026-04-30 21:19 25.79955 -80.30038 18 ft 8 kts 300°
2026-04-30 21:20 25.79984 -80.30093 19 ft 8 kts 302°
2026-04-30 21:20 25.80030 -80.30124 19 ft 8 kts 353°
2026-04-30 21:20 25.80075 -80.30092 18 ft 8 kts 70°
2026-04-30 21:20 25.80076 -80.30026 18 ft 9 kts 86°
2026-04-30 21:21 25.80082 -80.29906 17 ft 37 kts 87°
2026-04-30 21:21 25.80105 -80.29311 21 ft 117 kts 88°
2026-04-30 21:21 25.80206 -80.26533 645 ft 203 kts 90°
2026-04-30 21:22 25.80242 -80.25003 1808 ft 192 kts 96°
2026-04-30 21:22 25.78529 -80.21703 2827 ft 187 kts 130°
2026-04-30 21:23 25.77817 -80.20423 2840 ft 205 kts 120°
2026-04-30 21:23 25.76923 -80.18414 2873 ft 229 kts 118°
2026-04-30 21:23 25.75625 -80.15639 3127 ft 259 kts 119°
2026-04-30 21:24 25.74583 -80.13515 3510 ft 272 kts 116°
2026-04-30 21:24 25.74235 -80.10563 3913 ft 283 kts 70°
2026-04-30 21:24 25.75865 -80.07945 4676 ft 283 kts 45°
2026-04-30 21:24 25.79837 -80.02973 6624 ft 286 kts 47°